Regional Weather Roundup
Issued by NWS

Home | Current Version | Previous Version | Text Only | Print | Product List | Glossary On
Versions: 1 2 3 4 5 6 7 8 9 10 11 12 13 14 15 16 17 18 19 20 21 22 23 24 25 26 27 28 29 30 31 32 33 34 35 36 37 38 39 40 41 42 43 44 45 46 47 48 49 50
000
ASUS43 KOAX 290710
RWRNE

WEATHER ROUNDUP FOR NEBRASKA
NATIONAL WEATHER SERVICE OMAHA NE
200 AM CDT SUN MAR 29 2015

NOTES: SATELLITE DATA IS BEING USED TO AUGMENT CLOUD COVER ABOVE
       12000 FEET.
       "FAIR" INDICATES FEW OR NO CLOUDS BELOW 12,000 FEET WITH NO
       SIGNIFICANT WEATHER AND/OR OBSTRUCTIONS TO VISIBILITY.

  * THESE STATIONS DO NOT REPORT WEATHER SUCH AS RAIN...SNOW OR FOG.

NEZ001>004-019>022-054>056-290800-
NEBRASKA PANHANDLE

CITY           SKY/WX    TMP DP  RH WIND       PRES   REMARKS
SCOTTSBLUFF    CLEAR     52  20  28 NW12      30.01R
ALLIANCE       CLEAR     52  25  35 N12       29.97R
CHADRON        CLEAR     50  23  34 NW16      29.95R
KIMBALL        PTCLDY    50  28  43 N20G25    30.00R
SIDNEY         MOCLDY    54  32  43 NW18G26   29.98R
$$

NEZ057>060-069>072-079>082-290800-
SOUTHWEST NEBRASKA

CITY           SKY/WX    TMP DP  RH WIND       PRES   REMARKS
NORTH PLATTE   CLOUDY    57  37  47 N10       29.84R
IMPERIAL         N/A     70  24  17 NW16G29   29.87R
LEXINGTON      MOCLDY    60  41  50 SW25G32   29.79F
MCCOOK         LGT RAIN  65  37  35 SW8G25    29.85R
OGALLALA       MOCLDY    59  39  47 N20       29.89R
$$

NEZ005>010-023>029-035>040-094-290800-
NORTH CENTRAL NEBRASKA

CITY           SKY/WX    TMP DP  RH WIND       PRES   REMARKS
VALENTINE      CLEAR     54  36  50 NW14G24   29.86R
AINSWORTH      PTCLDY    57  38  50 NW17      29.84R
BROKEN BOW     MOCLDY    62  41  46 SW17G26   29.78R
O`NEILL        MOCLDY    52  38  58 W14G21    29.83R
ORD            MOCLDY    50  36  58 VRB5      29.78R
THEDFORD       PTCLDY    59  35  39 N20G32    29.87R
$$

NEZ041-046>049-061>064-073>077-083>087-290800-
SOUTH CENTRAL NEBRASKA

CITY           SKY/WX    TMP DP  RH WIND       PRES   REMARKS
GRAND ISLAND   MOCLDY    48  37  65 S21       29.80F
AURORA         PTCLDY    46  37  69 S16G24    29.80S
HASTINGS       PTCLDY    50  38  63 S12       29.81F
HEBRON         CLEAR     46  37  69 S10G17    29.86S
HOLDREGE       PTCLDY    49  37  62 CALM      29.83S
KEARNEY *      PTCLDY    50  37  62 S20       29.81F
YORK           CLEAR     45  37  76 S18       29.82F
$$

NEZ011>018-030>034-042>045-290800-
NORTHEAST NEBRASKA

CITY           SKY/WX    TMP DP  RH WIND       PRES   REMARKS
NORFOLK        CLOUDY    47  35  63 S16       29.78F
ALBION         MOCLDY    47  35  62 S14G21    29.79S
BLAIR          PTCLDY    44  32  63 S21G32    29.85S
COLUMBUS *     MOCLDY    45  32  61 S15       29.83F
FREMONT        PTCLDY    44  33  64 SE23G32   29.84S
TEKAMAH        CLEAR     45  32  60 SE24G38   29.85F
WAYNE          MOCLDY    43  33  67 S20G28    29.79F
$$

NEZ050>053-065>068-078-088>093-290800-
SOUTHEAST NEBRASKA

CITY           SKY/WX    TMP DP  RH WIND       PRES   REMARKS
LINCOLN        CLEAR     44  34  67 S16G26    29.87F
OMAHA EPPLEY   PTCLDY    43  32  65 S23       29.87F
BEATRICE       CLEAR     43  34  70 S15G21    29.87F
FALLS CITY     CLEAR     40  31  70 SE15      29.94F WCI  32
NEBRASKA CITY  CLEAR     40  30  66 S20G28    29.91F WCI  31
PLATTSMOUTH    CLEAR     41  30  65 SE20G28   29.88F
$$

NEZ044-045-051>053-067-290800-
OMAHA AREA

CITY           SKY/WX    TMP DP  RH WIND       PRES   REMARKS
OMAHA EPPLEY   PTCLDY    43  32  65 S23       29.87F
BLAIR          PTCLDY    44  32  63 S21G32    29.85S
FREMONT        PTCLDY    44  33  64 SE23G32   29.84S
MILLARD        CLEAR     43  32  66 SE13G18   29.88S
OFFUTT AFB     PTCLDY    42  31  67 SE22      29.88F
PLATTSMOUTH    CLEAR     41  30  65 SE20G28   29.88F
WAHOO          FAIR      42  32  68 S21       29.84F
$$


USA.gov is the U.S. government's official web portal to all federal, state and local government web resources and services.